RH
12 11 9 8 6 5 4 11 22 38 66 86 100 100 100 100 100 100 96 100 100 100 100 100 100 100 100 100 100 100 100 100 100 98 100 100 99 96 90 75 80 76 48 38
14 13 12 10 8 6 5 17 27 34 53 81 92 100 100 99 89 100 98 100 100 100 100 100 100 100 100 100 100 100 100 100 100 98 98 95 93 85 68 65 75 68 56 35
16 14 13 11 9 6 11 30 34 29 48 71 98 100 94 95 92 100 100 100 100 100 100 100 97 95 100 100 100 100 97 95 98 98 99 100 86 63 43 23 18 14 15 9
17 15 13 11 8 8 31 49 56 71 89 98 100 100 92 91 93 100 100 100 100 100 100 100 100 100 100 100 99 99 100 99 89 46 24 16 14 10 8 6 5 6 5 5
16 14 13 10 8 25 58 71 94 100 100 100 100 100 99 91 99 100 100 100 100 100 100 100 100 100 99 98 99 92 86 50 21 13 11 7 5 5 5 5 5 4 3 4
16 14 12 10 21 75 78 93 100 99 100 100 100 98 98 98 100 100 100 99 100 100 100 100 99 98 98 85 51 21 14 13 7 5 5 5 5 6 8 8 12 12 16 24
18 17 19 41 87 100 99 100 100 100 100 100 100 100 100 100 100 100 99 99 100 100 100 100 98 89 58 19 15 11 6 6 6 6 5 5 6 10 17 30 37 31 58 65
24 35 59 99 100 100 100 100 100 100 99 100 100 100 100 99 100 100 98 98 98 98 96 73 27 16 16 10 7 6 6 6 5 7 12 14 14 21 39 47 41 58 66 76
45 86 100 100 100 100 100 100 100 99 100 100 100 100 99 99 95 95 92 77 53 31 17 15 16 10 8 7 6 5 6 6 16 25 24 39 41 48 59 44 48 67 73 96
92 100 100 100 100 100 100 100 100 100 100 100 100 100 91 88 90 79 58 35 27 19 18 14 10 9 7 6 6 6 10 32 26 36 43 73 84 83 69 59 76 61 93 98
100 100 100 100 100 100 100 100 100 100 100 100 96 91 94 78 61 35 24 22 20 18 13 11 10 8 7 6 7 11 38 37 42 43 54 67 84 87 67 98 91 96 100 100
100 100 100 100 100 100 100 100 100 100 96 97 98 71 50 72 38 19 23 21 17 14 13 13 11 10 9 9 10 36 58 56 43 47 64 66 88 77 83 97 100 100 100 100
100 100 100 100 100 100 100 100 100 100 100 94 62 76 44 25 19 22 19 17 16 14 15 14 12 11 12 16 33 40 56 52 56 76 65 83 87 75 99 100 100 100 100 100
100 100 100 100 100 100 100 100 100 88 47 48 65 65 24 18 22 25 17 16 15 16 17 17 14 14 20 41 56 49 56 58 52 74 72 94 98 96 100 100 100 100 100 99
100 100 100 100 100 100 100 97 76 73 88 85 63 50 30 21 23 17 17 17 17 18 18 17 15 16 19 22 62 72 81 66 51 82 99 98 100 100 100 100 100 100 100 70
100 100 100 100 100 100 100 93 90 100 100 98 85 53 27 24 19 17 18 19 20 20 18 17 17 18 22 22 42 72 71 70 60 67 93 100 95 100 100 100 97 76 60 50
100 100 100 100 100 100 100 98 97 93 97 100 60 28 26 19 18 20 22 22 20 19 18 19 20 21 24 24 39 75 69 59 84 70 84 100 94 93 95 84 63 49 39 31
100 100 100 100 100 100 100 100 94 97 100 96 52 30 22 20 22 23 22 19 19 20 24 27 27 27 27 29 31 83 62 60 52 75 63 98 84 91 88 47 34 26 27 26
99 100 100 100 99 100 100 100 100 100 96 89 45 20 21 24 25 23 20 22 24 27 27 26 30 36 32 33 34 81 67 57 43 47 49 54 71 71 56 43 36 24 23 27
98 100 100 100 100 100 100 100 100 100 88 29 20 24 26 26 22 19 23 34 36 45 51 47 55 52 52 40 35 74 87 66 39 29 20 25 34 54 57 30 25 25 29 27
100 100 100 100 100 100 100 100 99 66 24 24 28 29 23 20 20 28 34 43 68 92 82 73 70 74 66 50 79 77 91 76 40 19 18 18 22 28 36 28 22 24 24 19
100 100 99 100 100 100 96 84 37 25 29 30 26 20 18 20 26 29 56 78 86 100 74 93 82 64 56 87 98 94 91 68 33 27 41 50 36 25 28 33 30 24 21 45
99 100 100 100 90 70 41 27 30 34 31 21 17 18 21 24 27 42 50 72 85 100 100 90 90 73 100 98 63 42 54 75 96 82 71 72 44 24 21 28 35 54 51 34
100 100 98 84 50 30 34 37 35 24 18 16 16 20 23 25 36 48 59 78 88 99 97 100 96 70 49 47 64 100 100 100 100 100 99 100 83 35 42 56 49 35 34 36
42 46 36 34 36 41 40 27 19 16 15 16 20 24 26 33 39 53 62 70 77 76 59 43 37 37 48 77 100 100 100 99 88 85 92 92 76 52 40 37 42 42 38 40
49 49 48 50 46 37 24 19 17 16 14 18 24 27 38 44 74 70 80 63 58 55 36 36 61 90 100 100 100 89 64 53 52 49 50 47 50 50 45 46 49 53 65 62
65 60 47 38 30 23 20 18 16 15 18 25 28 41 48 73 71 78 84 73 76 82 86 80 95 100 98 77 62 49 44 42 40 49 56 53 47 50 58 66 77 76 70 58
Wind_Speed
56 55 51 45 40 37 35 32 34 34 37 34 30 28 27 29 30 32 35 31 32 34 39 32 33 34 30 33 37 32 29 28 27 28 27 27 28 29 30 32 34 35 37 37
52 51 47 42 38 36 33 31 34 32 34 36 30 30 30 32 34 25 29 26 32 35 40 34 36 33 36 35 33 26 27 23 22 24 25 24 26 27 29 33 35 37 38 38
44 44 40 38 35 35 31 31 32 32 32 35 33 28 28 29 24 16 25 23 31 28 33 35 34 35 36 32 29 25 20 21 22 22 23 24 26 28 33 36 39 40 43 45
40 38 35 34 33 32 30 29 28 29 30 28 27 26 25 21 14 18 25 25 33 24 20 26 22 20 20 22 19 18 16 16 18 22 25 28 30 32 36 39 41 44 44 47
35 34 32 32 32 30 28 26 24 24 25 26 25 20 14 12 14 20 22 23 23 23 23 23 24 22 23 18 13 13 16 20 22 25 28 30 31 34 38 41 42 47 49 50
29 29 30 29 30 27 25 22 21 23 22 20 16 14 13 14 16 19 24 23 23 21 21 22 22 21 15 11 13 17 19 23 25 25 28 33 36 36 36 38 37 39 39 37
29 30 29 28 26 24 22 20 21 21 20 17 18 19 22 24 23 22 22 20 22 19 19 17 14 10 11 15 17 18 20 22 26 28 32 34 37 37 36 33 32 34 21 22
28 28 26 26 24 21 21 20 20 21 18 22 22 24 28 27 21 18 15 12 12 11 9 8 11 12 14 15 16 18 21 25 27 27 28 32 34 31 27 24 22 17 22 14
27 25 24 24 23 24 24 26 24 21 23 25 28 29 23 19 15 14 11 9 8 9 9 10 10 11 12 14 15 18 20 20 19 17 9 9 8 7 8 10 11 15 3 4
24 24 25 25 26 28 28 24 24 25 27 27 27 24 19 17 14 11 9 9 9 9 9 10 10 10 11 13 15 16 12 9 7 3 4 9 12 13 7 6 7 7 9 8
24 24 25 28 29 27 26 30 30 29 27 28 24 20 18 15 13 11 9 9 10 9 8 7 8 10 11 12 11 8 8 3 9 12 13 9 6 2 3 3 4 5 2 3
23 27 27 26 26 27 34 34 32 27 22 20 20 16 15 13 11 9 9 8 7 7 7 8 9 9 10 11 5 5 4 2 2 2 2 2 2 1 4 4 2 5 10 9
26 24 24 27 28 34 32 32 29 25 24 19 17 15 14 11 10 9 9 9 8 8 8 8 8 9 8 8 4 6 8 4 4 0 2 3 0 2 2 9 8 7 12 17
25 25 27 29 34 34 33 29 26 22 19 17 17 14 12 11 10 9 9 8 8 8 8 8 9 10 9 9 7 7 10 11 2 2 3 2 4 1 3 7 9 9 13 13
27 28 28 28 35 36 32 28 24 24 22 18 15 14 11 10 10 9 8 8 10 10 9 9 11 11 8 12 15 11 12 13 7 2 5 7 10 9 11 9 9 9 11 10
30 28 27 35 36 34 31 28 27 23 20 15 15 14 11 10 8 7 8 11 12 13 13 12 12 12 11 12 19 17 10 13 14 9 5 11 12 10 10 10 10 8 7 8
33 31 30 34 34 31 31 25 22 21 19 17 14 10 8 8 8 9 11 13 14 16 16 16 15 15 14 13 21 24 18 12 14 14 10 10 16 12 11 9 8 7 7 7
29 28 27 31 29 27 27 26 23 19 15 14 11 8 9 9 9 11 14 16 17 19 20 21 20 19 19 15 23 27 24 19 15 14 13 13 11 10 9 7 5 6 5 4
30 28 30 29 24 22 19 20 19 16 14 13 11 10 10 10 11 13 15 17 21 23 24 26 26 26 25 20 27 31 26 23 18 16 13 13 13 12 8 5 4 4 3 1
30 30 27 24 19 17 16 17 15 14 13 11 11 9 9 10 12 13 15 14 12 15 17 14 15 20 22 23 28 35 30 25 19 16 14 13 13 14 12 8 7 8 7 8
28 27 23 22 21 20 17 18 15 14 12 10 9 9 9 10 11 11 9 6 9 14 10 6 5 17 21 22 24 29 27 24 22 20 18 19 17 16 15 13 12 10 10 13
27 25 25 23 21 20 19 18 16 13 11 9 8 8 9 10 10 6 4 4 8 8 5 6 8 17 17 19 19 20 20 23 23 19 17 14 15 17 15 12 11 10 12 13
29 30 26 22 20 19 17 15 12 10 9 8 7 8 8 10 5 11 3 3 6 8 9 6 12 16 16 16 14 12 13 14 12 8 13 17 13 9 8 11 11 11 11 15
25 27 25 21 18 16 14 13 11 10 8 6 6 8 9 5 16 9 4 4 3 4 8 10 13 13 13 11 12 14 13 10 9 10 11 13 15 14 13 10 11 13 15 13
21 21 20 18 16 15 13 11 10 7 5 5 7 7 12 16 13 7 5 7 5 8 9 10 8 6 8 10 12 11 8 8 8 8 8 8 10 11 11 11 8 8 12 18
20 19 18 17 16 14 13 11 9 6 6 7 6 13 17 14 10 9 9 8 8 5 6 7 6 7 10 12 12 10 8 6 4 3 3 5 6 6 3 3 8 13 17 20
20 19 18 17 15 14 12 10 8 6 6 6 13 19 16 13 14 8 7 7 5 5 6 6 8 10 9 9 8 6 5 3 2 3 5 5 3 0 5 11 14 16 20 23
Wind_Direction
242 244 248 250 251 253 255 256 253 254 249 254 253 251 252 258 256 257 257 251 246 232 236 233 221 232 229 230 221 235 235 236 228 234 234 239 242 243 247 251 256 260 264 265
242 243 246 248 249 251 254 254 252 255 256 252 257 253 254 257 260 256 257 249 223 223 225 220 213 209 217 228 227 229 224 224 238 241 246 250 253 255 259 262 264 267 267 267
238 240 243 244 246 247 251 252 253 254 258 255 259 255 252 253 247 232 232 231 212 221 225 225 221 230 230 227 236 225 231 243 247 250 257 262 265 264 262 262 264 265 268 270
233 235 236 240 240 244 247 248 248 254 254 247 247 247 245 236 229 210 216 214 214 215 216 224 226 229 228 233 229 239 251 260 265 271 271 271 271 274 272 272 271 268 270 270
225 227 229 234 236 240 241 247 245 248 242 239 232 220 210 199 206 204 206 207 202 208 210 210 220 229 240 240 243 254 266 270 272 271 274 277 278 276 276 278 281 279 276 278
218 221 225 228 231 235 240 237 236 235 230 221 206 196 186 170 179 200 215 219 213 214 215 222 230 236 233 242 256 261 264 270 274 276 277 278 280 282 283 282 281 282 285 283
210 213 220 219 223 228 231 223 223 218 206 196 172 170 170 183 185 191 201 201 200 198 201 204 209 217 247 259 266 272 274 278 281 284 283 281 280 280 280 281 280 287 279 286
210 210 212 216 220 218 214 208 198 200 194 171 172 174 175 179 172 170 168 167 171 172 187 212 230 240 255 267 273 281 284 286 286 284 284 286 285 281 275 273 266 263 286 295
204 204 209 214 208 203 192 195 195 184 179 174 176 177 171 159 170 163 164 178 195 207 210 219 236 249 260 272 280 284 287 287 285 286 303 327 320 305 273 249 237 276 236 178
197 201 203 199 189 191 193 188 178 175 177 178 174 161 166 170 170 174 182 197 201 201 214 228 239 254 272 283 289 292 283 264 266 217 272 302 298 289 251 268 287 244 275 299
197 197 195 191 192 191 186 171 177 175 171 169 165 167 168 173 179 187 197 204 204 214 226 241 257 266 276 289 295 267 199 226 270 270 287 290 288 264 265 295 316 310 312 185
189 191 196 187 182 178 176 179 174 167 164 170 161 164 174 180 191 198 200 199 215 227 243 258 266 273 291 298 295 199 200 239 294 261 258 306 325 103 240 40 9 117 107 121
190 192 174 179 179 181 179 173 172 167 165 163 172 175 177 186 195 205 206 212 221 235 251 268 279 281 281 277 253 213 205 197 155 192 350 39 320 34 34 150 141 167 133 118
188 172 182 181 178 176 174 165 160 158 161 174 180 188 190 197 206 213 219 221 232 250 268 274 265 263 252 229 206 209 200 194 195 286 249 167 158 105 137 156 162 164 129 112
167 174 181 181 176 175 168 163 166 172 175 180 183 192 201 210 218 223 233 247 259 267 271 266 259 255 245 227 202 198 207 209 212 211 201 184 143 131 138 136 128 123 121 122
176 180 181 178 181 175 172 171 178 182 185 181 195 203 209 222 235 240 255 268 275 274 273 269 262 255 250 231 209 206 216 208 198 192 188 196 176 165 153 151 145 134 128 120
184 184 181 184 183 179 176 179 181 184 190 192 195 202 215 232 245 257 268 274 275 277 277 271 264 255 249 232 210 208 213 216 207 189 185 173 142 151 156 153 142 130 117 122
190 195 184 188 186 186 187 190 190 196 200 201 206 223 234 242 256 270 277 279 281 280 277 270 261 251 246 237 211 203 203 216 216 200 186 188 182 173 159 142 135 137 132 123
185 187 183 184 185 190 189 189 194 200 198 203 217 227 238 252 265 275 285 287 290 293 286 275 260 246 242 234 210 203 204 211 214 207 200 192 197 208 207 204 225 220 216 308
176 177 181 182 188 186 191 196 201 200 198 209 218 231 246 264 276 285 295 302 307 324 306 293 259 219 210 205 204 203 208 210 214 215 213 217 208 207 218 225 224 227 262 290
172 172 175 178 186 189 190 191 196 199 202 212 226 243 261 272 283 299 296 292 320 322 315 292 221 190 186 190 192 199 208 209 214 218 224 228 231 226 219 225 237 253 275 289
172 171 174 177 184 187 186 189 195 196 204 216 230 249 263 278 289 260 184 343 346 7 35 90 147 169 168 169 180 195 203 208 219 225 232 235 234 242 241 255 252 249 260 269
173 174 177 182 181 183 188 188 189 197 206 223 243 259 275 283 254 163 140 19 87 47 63 121 139 150 153 159 168 180 194 200 193 216 214 182 188 199 221 226 236 253 270 282
167 174 182 186 185 184 184 187 193 201 211 233 256 268 280 211 159 156 165 147 110 91 126 132 132 134 143 162 176 175 171 171 177 174 168 180 182 187 210 223 242 262 283 291
172 175 180 182 182 186 189 188 191 197 218 248 261 275 166 160 170 179 157 151 138 141 141 140 144 151 164 169 162 156 153 139 130 138 157 174 183 198 224 245 255 279 299 302
174 179 182 183 186 186 186 187 189 205 231 248 261 174 160 165 166 150 138 155 149 156 168 182 181 171 157 151 147 146 152 161 163 160 168 177 179 181 192 282 306 307 308 313
183 183 184 187 188 185 184 189 198 219 230 260 182 166 161 164 164 157 156 172 179 167 174 185 177 162 156 152 150 161 176 194 235 196 170 159 144 297 317 312 309 312 312 310